COSMOS 1275 DEB, 13468

Orbit data source: Space-Track

COSMOS 1275 DEB, 13468 is space debris in LEO originally from a launch on Thu, 04 Jun 1981 UTC launched from the Plesetsk Missile And Space Complex (PKMTR). Debris objects in space refer to the collection of defunct objects orbiting the Earth. Examples of debris include non-operational satellites, rocket bodies, and fragments generated from explosions, collisions, or faulty payload assembly.

Loading next visibility...
Identifier
13468, 1981-053FQ
Orbit
LEO
Country
Flag of CISCIS
Related business
Manufacturer
Unknown
Mission
Spacecraft
Bus & Motor
Unknown
Mass
Unknown
Launch date (UTC)
1981-06-04 (44 years ago)
Launch vehicle
Unknown
Launch site
Plesetsk Missile And Space Complex (PKMTR)
Object type
Payload
Rocket body
Debris
Shape & HBR
Unknown shape, 0.1 m
Radar Cross Section
Small (<0.1 m²)

Expand to show TLE details & history
Last TLE update: 9 hours ago

TLE from 9 hours ago
0 COSMOS 1275 DEB
1 13468U 81053FQ  25286.61165104  .00001670  00000-0  12672-2 0  9990
2 13468  82.7066 343.1430 0063949 173.1155 350.9671 13.92351708182747
Epoch: 2025-10-13T14:40Z
TLE epoch observation values (Epoch: 2025-10-13T14:40:46.649Z)
Latitude
15.88057°
Longitude
-81.53896°
Altitude
876.553 km
Speed
7.439 km/s
True Right ascension
10h 44m 16s
True Declination
15° 47' 30"
Sunlit
Object was in daylight at epoch
Visualization orbit readout
Latitude
Unknown
Longitude
Unknown
Altitude
Unknown
Speed
Unknown
Apparent Right ascension
Unknown
Apparent Declination
Unknown
Sunlit
N/A
Visualization observer readout
Local Sidereal Time
18:37:50
Azimuth
Unknown
Elevation
Unknown
Doppler factor
Unknown
Orbital elements
Apogee altitude
964.19 km
Perigee altitude
870.88 km
Semi-major axis
7,295.672 km
Eccentricity
0.00639
Inclination
82.7066°
RAAN
343.143°
Arg. of periapsis
173.1155°
True anomaly
350.85113°
Mean anomaly
350.9671°
Eccentric anomaly
350.90921°
Mean motion
3.48293 °/min
Orbital period
103.36 mins
BSTAR
0.0012672
Loading maneuver chart data...
Computing Atmospheric mass density...
Loading historical data...
Loading historical data...
Loading historical data...
Loading historical data...
Loading historical data...
Loading historical data...
Loading historical data...

Documentation

Showing up to 5 results
|